Location: SE Lincoln, NE
(40.7805°N, 96.6275°W)
Time: 03:25:44
(UTC-05:00)

Cosmos 1470 Rocket - Pass Details

Date: 15 May 2021
Orbit: 603 x 634 km, 82.5° (Epoch: 23 June)

Event Time Altitude Azimuth Distance (km) Brightness Sun altitude
Rises 21:46:26 0° 356° (N) 2,939 7.7 -11.8°
Reaches altitude 10° 21:48:43 10° 360° (N) 2,026 6.8 -12.2°
Maximum altitude 21:53:10 60° 80° (E) 724 3.7 -12.8°
Enters shadow 21:56:31 17° 158° (SSE) 1,593 5.1 -13.3°
